Vertical_Velocity
3 -1 -2 -0 -1 0 0 -4 3 1 3 5 -1 -4 2 -1 -0 1 0 -6 -1 -1 0 -2 0 0 1 -0 -0 -0 -0 0 -1 -1 3 -1 1 2
1 -3 -7 -1 -3 -1 20 26 3 -3 1 7 -3 1 -0 2 -3 -1 -1 0 -2 -1 -2 -0 -2 -1 -3 -2 -2 -0 0 1 0 1 -3 -1 2 -0
-1 1 1 1 6 -1 1 -3 6 5 4 7 -0 1 -4 -0 -2 2 1 1 3 2 -1 0 1 1 -1 0 1 1 2 0 -1 0 1 1 3 3
6 24 12 4 -3 -0 -1 5 4 0 -2 3 -5 -3 1 4 5 5 -1 -2 -0 2 5 2 -1 -2 2 1 4 1 -2 -1 -2 -1 -1 -5 -0 3
-8 20 27 4 10 2 10 10 11 1 -3 2 10 2 4 -2 1 -1 4 6 1 1 3 1 0 1 -1 -1 -5 -3 1 -0 -2 -1 -3 -3 -2 -0
21 7 4 8 -4 -7 -6 -6 -2 -1 1 2 3 5 2 1 1 5 3 -6 3 1 2 0 0 -2 -5 -5 -2 1 0 2 1 1 0 -1 -1 0
3 0 -10 -3 2 2 2 -1 3 3 1 2 -0 2 1 1 -0 2 -5 3 9 3 2 11 -2 -6 -1 -8 -7 -1 -3 4 3 -0 -0 1 -0 0
-8 -4 0 0 -1 -1 1 2 2 2 -0 1 -0 -1 0 -4 1 -2 -1 -1 -2 9 -5 4 -9 6 -2 0 -1 -6 -4 -7 4 3 4 1 2 -0
1 2 -1 -1 1 1 -1 -4 -0 -1 -2 -0 1 -6 4 -5 -3 -1 -5 -10 -4 1 -8 -2 4 7 -5 2 -4 1 1 -1 -1 3 4 5 0 4
-0 1 2 1 2 1 -1 -2 -1 -0 -0 -2 2 3 1 4 -1 -2 2 1 -0 7 -15 -5 -3 1 4 -6 -2 -3 -4 -3 0 1 2 2 1 9
-0 0 0 1 -0 1 2 0 -2 -2 -4 -4 -3 -4 -4 -6 -6 -5 -7 -11 -3 6 -1 -9 0 -3 -0 -1 -4 -0 1 -0 -3 0 -5 -2 -3 -1
-0 1 1 1 2 3 4 3 3 1 3 -2 -5 -4 -5 -5 -7 -9 -5 -2 -4 6 -2 -2 -1 -12 15 -6 -2 -4 -4 -1 -6 -4 -7 -3 -1 -2
0 -0 -1 -2 -2 0 1 1 1 5 2 2 0 -0 -3 -5 -3 -4 -4 -6 -3 -3 -13 -10 9 -7 -9 4 -0 -4 -4 -9 -5 -1 1 -1 -1 -3
1 1 1 2 1 -1 -0 1 0 -2 0 3 -0 -2 1 -0 -3 -2 -5 -4 -10 -3 -0 -9 3 -4 -3 2 2 -6 -8 -7 -6 -3 0 -3 -3 -6
-1 -2 -1 -1 -0 -1 -1 -2 -1 -1 -2 -1 0 2 0 -0 -4 -1 -7 -2 -2 -2 -3 -4 -3 -0 -2 -3 4 -4 -3 -4 0 -7 -9 -1 2 -2
-1 -3 -2 -3 -2 -2 -3 -4 -2 -3 -3 -2 -2 -3 -2 -2 -4 -2 2 -0 -2 -4 1 -2 -2 0 -2 -3 -2 -1 -3 -3 -2 -1 0 -1 13 13
0 -2 -1 1 0 -1 -2 -1 -2 -1 -1 -3 -4 -3 -4 -1 -3 -2 -2 3 5 -2 -0 2 -1 -1 -2 -1 -0 -1 -2 2 -1 3 -0 1 6 3
4 1 -1 1 1 1 1 2 -2 -2 -3 -1 -3 -3 -2 -1 1 -3 2 1 3 1 -2 2 -1 -0 0 -1 -1 -2 -1 3 3 2 1 1 -0 0
1 1 2 0 1 0 0 -0 -1 -2 -1 -1 -1 -2 -2 -1 0 -1 -1 1 2 1 1 1 0 0 1 -1 0 -2 -2 -0 2 0 -0 6 1 -1
1 2 2 0 -1 -0 -2 -1 -3 -5 -4 -3 -2 -0 0 1 -0 0 1 1 1 2 -0 -1 -1 1 1 -1 -1 2 1 2 -2 2 4 1 8 10
1 0 -0 1 2 1 0 -1 -1 -1 -0 0 -4 -0 0 1 -0 0 -1 1 0 1 -1 -1 1 1 1 1 -0 -1 3 2 -0 5 7 4 9 8
3 3 1 -1 -1 -0 -0 -0 1 -2 1 -0 0 -1 0 1 -1 -1 0 0 1 -0 -0 1 2 1 1 0 -4 0 5 2 -2 -1 3 4 5 -1
-0 -1 -1 -0 0 0 1 0 0 -2 1 1 0 1 1 -1 0 0 0 -1 0 1 0 2 2 2 2 1 1 6 5 3 3 2 3 6 -1 -1
Height
5694 5697 5698 5700 5700 5700 5700 5700 5699 5700 5701 5699 5698 5696 5696 5695 5693 5692 5692 5692 5695 5695 5693 5692 5691 5691 5690 5688 5686 5684 5682 5680 5679 5677 5676 5674 5673 5672
5683 5686 5687 5689 5689 5690 5691 5688 5687 5689 5689 5690 5687 5687 5687 5687 5688 5686 5686 5686 5686 5685 5684 5683 5681 5680 5678 5676 5674 5671 5669 5667 5665 5663 5661 5659 5658 5656
5673 5674 5675 5677 5677 5679 5679 5680 5679 5679 5677 5677 5678 5677 5679 5680 5679 5678 5678 5677 5676 5674 5673 5671 5668 5666 5664 5661 5659 5656 5654 5652 5649 5647 5644 5642 5641 5640
5663 5662 5666 5669 5669 5668 5669 5670 5670 5668 5667 5670 5672 5672 5673 5672 5671 5670 5668 5667 5665 5663 5660 5657 5654 5651 5648 5645 5642 5639 5636 5634 5631 5629 5626 5624 5622 5621
5656 5658 5659 5660 5661 5659 5659 5658 5659 5659 5661 5664 5666 5665 5664 5662 5662 5660 5658 5656 5653 5650 5646 5641 5637 5634 5631 5628 5624 5621 5618 5614 5611 5608 5604 5602 5601 5599
5649 5649 5652 5652 5651 5652 5653 5654 5655 5655 5655 5655 5655 5654 5653 5651 5649 5648 5646 5643 5639 5635 5631 5626 5621 5617 5613 5609 5606 5602 5599 5594 5590 5586 5583 5580 5578 5577
5644 5647 5649 5650 5650 5649 5649 5650 5649 5648 5647 5645 5644 5642 5640 5638 5635 5633 5630 5627 5624 5619 5614 5610 5605 5599 5593 5589 5585 5580 5577 5573 5568 5564 5560 5558 5556 5553
5642 5644 5645 5645 5645 5644 5643 5641 5640 5638 5636 5634 5631 5629 5626 5623 5620 5617 5614 5611 5608 5602 5597 5593 5585 5579 5573 5567 5562 5557 5553 5549 5545 5540 5536 5533 5530 5528
5638 5638 5638 5638 5637 5635 5633 5631 5629 5627 5625 5622 5619 5616 5612 5609 5605 5602 5598 5594 5590 5583 5577 5574 5565 5559 5552 5546 5539 5534 5530 5525 5521 5515 5511 5506 5502 5499
5632 5631 5630 5628 5627 5624 5622 5619 5617 5613 5610 5607 5604 5601 5597 5592 5588 5584 5579 5575 5570 5564 5554 5554 5544 5538 5530 5522 5516 5511 5505 5500 5495 5489 5484 5478 5473 5466
5624 5622 5620 5617 5615 5613 5609 5605 5602 5599 5595 5591 5586 5582 5577 5572 5567 5563 5559 5555 5551 5544 5532 5530 5520 5516 5508 5498 5491 5485 5480 5474 5468 5463 5454 5447 5439 5437
5612 5610 5607 5604 5601 5598 5595 5592 5588 5584 5579 5574 5569 5563 5558 5552 5547 5543 5538 5533 5526 5522 5509 5507 5495 5489 5487 5473 5466 5459 5455 5450 5443 5434 5426 5423 5424 5427
5600 5597 5593 5590 5587 5583 5580 5576 5572 5568 5563 5557 5551 5545 5539 5533 5528 5521 5515 5509 5503 5496 5486 5482 5473 5464 5459 5457 5445 5439 5434 5426 5419 5414 5413 5416 5419 5424
5586 5583 5580 5576 5571 5567 5562 5558 5552 5548 5543 5538 5532 5525 5519 5512 5506 5499 5492 5486 5479 5473 5463 5456 5452 5444 5439 5434 5431 5421 5413 5407 5404 5404 5407 5410 5415 5421
5572 5568 5563 5558 5553 5548 5543 5538 5533 5528 5524 5518 5511 5505 5499 5491 5483 5476 5468 5462 5454 5449 5442 5436 5432 5428 5422 5416 5411 5406 5403 5401 5401 5400 5405 5408 5413 5419
5555 5550 5546 5541 5536 5530 5524 5519 5513 5508 5502 5496 5490 5482 5474 5467 5460 5455 5447 5440 5434 5430 5425 5419 5415 5410 5405 5401 5399 5397 5397 5398 5400 5401 5403 5406 5411 5415
5538 5533 5528 5522 5516 5509 5503 5497 5491 5486 5480 5474 5467 5459 5452 5445 5438 5432 5428 5422 5417 5412 5408 5404 5399 5396 5393 5391 5391 5392 5393 5395 5397 5398 5401 5404 5409 5415
5519 5512 5506 5501 5496 5490 5484 5478 5472 5467 5461 5454 5447 5440 5434 5427 5420 5414 5410 5406 5401 5398 5392 5390 5386 5385 5384 5385 5386 5388 5391 5392 5394 5395 5397 5401 5407 5413
5499 5493 5487 5481 5476 5471 5466 5460 5454 5448 5442 5435 5428 5422 5416 5409 5405 5399 5395 5390 5386 5384 5381 5378 5378 5378 5379 5380 5381 5384 5387 5389 5392 5394 5396 5400 5405 5411
5478 5473 5467 5462 5457 5453 5448 5442 5436 5430 5424 5418 5411 5405 5399 5394 5389 5385 5381 5376 5374 5372 5370 5370 5371 5373 5375 5376 5378 5381 5383 5386 5390 5393 5396 5401 5407 5414
5458 5453 5449 5445 5441 5437 5432 5426 5420 5414 5408 5402 5395 5390 5385 5380 5375 5372 5368 5365 5364 5364 5364 5365 5366 5369 5371 5372 5375 5377 5379 5382 5387 5391 5397 5403 5409 5413
5439 5436 5433 5430 5426 5422 5417 5411 5405 5399 5393 5388 5382 5377 5372 5368 5364 5360 5358 5357 5357 5358 5359 5360 5362 5365 5367 5369 5371 5373 5375 5378 5384 5389 5395 5401 5407 5411
5426 5423 5420 5416 5412 5408 5403 5397 5391 5385 5380 5375 5370 5365 5360 5356 5354 5352 5351 5352 5353 5354 5355 5357 5359 5361 5363 5365 5368 5370 5372 5375 5380 5386 5394 5400 5406 5412